Lid_Strength_Index
1 1 1 3 10 10 13 11 7 8 8 8 6 7 8 11 12 12 10 8 5 3 2 2 0 0 0 1 0 0 -0 -0 -0 0 0 -0 -0 -0 -1 -1 -1 -1 -2 -2 -2 -2 -2 -1 -1
3 3 2 5 11 14 13 8 9 8 8 6 6 6 7 12 11 12 11 7 5 4 3 2 2 1 1 1 1 1 1 1 1 1 0 0 1 0 0 0 0 -0 -0 -0 -0 -1 -1 -1 -1
3 3 6 9 11 14 12 9 8 9 8 7 8 9 9 12 11 11 9 7 5 4 3 3 2 2 2 2 2 1 1 1 1 1 1 1 1 1 1 1 1 0 -0 -0 -0 -0 -0 -0 -1
5 5 5 11 12 10 9 8 7 9 9 8 7 11 12 10 10 10 9 7 6 5 4 3 3 2 2 2 2 2 2 2 2 2 2 2 2 2 2 2 2 2 2 1 1 1 1 -1 -2
5 5 11 12 11 9 7 6 7 9 9 9 8 11 13 11 9 9 9 7 7 6 5 5 4 3 3 3 3 3 3 4 4 4 4 4 4 3 3 3 3 3 3 3 2 2 1 -1 -1
7 6 13 14 12 9 8 6 8 8 8 9 9 10 12 10 10 10 9 8 6 6 6 7 6 5 5 4 4 4 4 5 5 6 6 5 5 5 5 4 4 4 4 3 3 1 0 1 1
8 9 12 12 11 10 9 7 9 8 8 10 9 11 13 11 10 10 10 9 8 7 7 8 8 8 6 7 6 6 6 7 7 8 8 8 7 6 6 5 4 4 4 3 1 2 2 1 2
6 8 11 11 12 11 8 8 10 10 11 10 10 11 13 11 10 10 10 10 10 10 10 11 10 9 10 10 9 9 8 9 9 9 9 9 9 8 7 6 5 4 4 3 3 3 2 2 3
4 11 13 11 11 10 9 10 11 11 11 11 11 12 11 10 10 11 11 11 11 10 10 10 11 11 11 12 11 10 10 10 10 10 10 10 11 11 9 7 5 4 4 4 4 4 3 4 5
7 11 11 8 8 9 8 8 7 11 11 12 12 12 11 11 11 12 12 12 11 11 11 10 11 12 12 11 12 13 12 12 11 11 11 11 12 12 9 8 7 6 5 5 4 4 3 6 7
7 10 8 7 9 10 10 11 9 11 10 9 11 13 12 12 12 12 11 11 11 11 11 10 11 12 13 12 13 13 13 12 12 12 11 11 11 12 11 10 9 9 7 8 7 6 6 7 6
10 8 7 7 9 9 10 10 11 11 11 11 10 11 12 12 12 11 11 11 11 11 11 11 11 12 12 12 12 12 12 12 12 12 12 12 12 12 11 10 9 9 8 8 7 7 6 6 6
10 9 8 8 9 10 10 10 9 10 9 11 10 11 12 12 12 10 10 10 11 11 11 12 12 12 12 13 13 13 13 13 13 12 12 11 11 11 10 9 9 8 8 8 8 8 7 7 7
9 9 9 9 10 9 11 10 10 9 7 11 11 11 12 11 11 10 11 11 11 11 12 12 12 13 12 13 13 13 13 13 13 12 12 11 11 11 9 9 9 9 9 9 9 9 9 9 10
10 12 11 10 10 10 11 12 11 9 8 10 11 11 11 11 10 10 10 11 11 11 12 13 13 13 13 13 13 13 13 13 13 12 12 12 11 11 9 9 9 10 10 10 10 10 11 11 11
12 12 15 12 11 11 11 14 9 8 11 11 12 12 11 11 11 10 10 11 11 11 12 13 12 13 13 13 14 13 12 12 12 12 12 12 11 10 10 10 10 10 10 10 11 11 12 12 12
13 16 15 13 12 13 12 14 11 11 11 12 11 11 11 11 11 11 11 11 11 12 12 13 14 14 13 13 14 13 12 12 13 13 13 12 11 10 10 10 10 10 10 11 11 11 12 12 12
16 15 14 14 13 14 15 15 12 12 12 12 11 11 11 12 11 11 11 11 11 12 12 13 14 14 13 14 13 13 13 13 13 13 13 12 12 10 10 10 10 9 11 11 11 12 12 12 13
13 14 15 14 14 15 15 15 13 12 14 13 12 11 10 11 11 11 11 11 11 11 13 14 14 13 13 14 14 14 14 14 14 13 12 12 12 10 10 10 10 10 11 11 11 12 12 12 12
14 15 16 14 15 16 16 16 14 13 12 13 12 12 10 10 11 11 11 11 12 12 13 14 14 14 13 13 13 13 13 13 13 13 13 12 12 11 10 10 10 10 11 11 11 11 11 12 11
15 16 16 17 15 16 18 18 16 14 13 12 12 11 10 10 11 11 11 12 12 13 13 14 14 14 13 12 12 12 13 13 14 14 14 13 12 12 11 10 10 10 10 11 11 11 11 13 12
18 16 15 16 18 21 17 23 18 15 14 14 12 12 11 10 10 10 12 12 13 13 13 14 14 14 13 13 13 13 14 15 14 14 13 13 12 12 12 11 10 11 11 11 11 11 12 12 14
17 16 17 17 19 19 20 22 19 17 16 15 13 12 12 11 10 11 11 12 12 13 14 14 14 14 13 12 12 13 14 13 13 13 14 13 13 12 12 12 12 12 12 13 13 13 13 13 13
15 18 17 19 19 25 20 19 20 17 16 15 13 13 12 13 12 10 10 12 12 13 14 14 14 13 12 13 13 13 13 13 14 14 14 14 14 13 13 12 12 12 13 13 13 13 13 13 13
17 19 21 24 26 24 20 20 18 15 13 14 13 13 14 13 13 11 12 12 12 13 13 14 14 14 13 13 13 13 12 13 13 13 14 14 14 14 14 13 13 13 13 13 13 13 13 13 14
18 18 20 25 23 21 21 22 19 14 13 14 15 15 14 15 13 12 12 12 12 13 13 13 14 13 13 13 13 12 12 12 13 13 13 13 14 13 13 13 13 13 12 13 13 13 14 13 14
19 21 18 20 23 24 21 19 16 15 14 14 14 15 14 15 14 13 12 11 11 12 13 13 13 13 13 13 12 12 12 13 12 13 13 13 13 12 13 13 13 13 13 13 13 14 14 14 14
19 18 20 20 28 27 20 20 20 17 15 15 15 15 14 14 15 14 12 12 12 12 12 13 13 13 13 13 12 12 12 12 12 12 13 13 13 12 13 13 13 13 13 13 14 14 14 14 14
21 20 20 19 20 23 24 21 16 15 15 16 16 15 14 14 13 14 12 12 11 12 12 12 12 13 13 12 12 12 12 12 12 12 13 12 13 12 13 13 13 14 14 14 14 14 14 14 15
20 19 18 20 23 21 21 21 14 14 14 15 15 14 14 15 14 13 13 13 12 12 12 12 12 13 12 12 12 12 12 12 13 13 13 13 13 13 13 13 14 14 14 14 14 14 14 15 15